Вернуться в каталог

GGSE 1

GGRS

АктивенНавигацияLEO
NORAD 728·PAYLOAD·🇺🇸 United States

Запущен Jan 11, 1964 с Vandenberg Space Force Base

Loading…

Ближайшие Пролёты (ближайшие 24 часа)

TLE

СвежийSource: Space-Track

Эпоха: Sep 14, 2026, 08:12 UTC

1 00728U 64001B   26257.34199306  .00000019  00000-0  51542-4 0  9996
2 00728  69.9102  11.5697 0015660 238.7110 121.2463 13.97790034192133

Отслеживайте GGSE 1 в реальном времени с AllMySat

Download on the App Store